Location: Demre
(36.2444°N, 29.9850°E)
Time: 04:20:40
(UTC+00:00)

Cosmos 1656 Rocket - Visible Passes

Search period start: 06 June 2026 00:00
Search period end: 16 June 2026 00:00
Orbit: 793 x 844 km, 71.1° (Epoch: 5 June)

Date Brightness Start Highest point End Pass type
(mag) Time Alt. Az. Time Alt. Az. Time Alt. Az.
6 Jun 5.7 01:02:42 10° WNW 01:05:08 13° NW 01:07:34 10° NNW visible
6 Jun 3.9 22:59:29 62° ENE 22:59:29 62° ENE 23:04:18 10° NNE visible
7 Jun 5.6 00:40:48 13° W 00:42:54 16° NW 00:46:08 10° NNW visible
7 Jun 4.3 22:37:49 47° ENE 22:37:49 47° ENE 22:42:10 10° NNE visible
8 Jun 5.4 00:19:08 17° WNW 00:20:43 19° NW 00:24:31 10° NNW visible
8 Jun 4.6 22:16:08 37° ENE 22:16:08 37° ENE 22:20:00 10° NE visible
8 Jun 5.2 23:57:26 21° WNW 23:58:32 22° WNW 00:02:48 10° N visible
9 Jun 5.0 21:54:24 30° ENE 21:54:24 30° ENE 21:57:47 10° NE visible
9 Jun 4.9 23:35:42 26° WNW 23:36:22 27° WNW 23:41:00 10° N visible
10 Jun 5.2 21:32:38 24° ENE 21:32:38 24° ENE 21:35:31 10° NE visible
10 Jun 4.7 23:13:56 32° WNW 23:14:13 32° WNW 23:19:09 10° N visible
11 Jun 5.5 21:10:50 19° ENE 21:10:50 19° ENE 21:13:09 10° NE visible
11 Jun 4.5 22:52:08 39° WNW 22:52:08 39° WNW 22:57:15 10° N visible
12 Jun 5.6 20:49:00 16° ENE 20:49:00 16° ENE 20:50:41 10° NE visible
12 Jun 4.3 22:30:18 47° NW 22:30:18 47° NW 22:35:19 10° N visible
13 Jun 5.8 20:27:08 12° ENE 20:27:08 12° ENE 20:28:03 10° ENE visible
13 Jun 4.1 22:08:26 56° NW 22:08:26 56° NW 22:13:21 10° NNE visible
14 Jun 3.9 21:46:31 63° NNW 21:46:31 63° NNW 21:51:21 10° NNE visible
15 Jun 3.8 21:24:33 66° NNE 21:24:33 66° NNE 21:29:18 10° NNE visible
15 Jun 6.1 23:06:14 10° WNW 23:08:06 12° NW 23:09:59 10° NNW visible
